Regional Weather Roundup
Issued by NWS

Home | Current Version | Previous Version | Graphics & Text | Print | Product List | Glossary On
Versions: 1 2 3 4 5 6 7 8 9 10 11 12 13 14 15 16 17 18 19 20 21 22 23 24 25 26 27 28 29 30 31 32 33 34 35 36 37 38 39 40 41 42 43 44 45 46 47 48 49 50
000
ASUS45 KBOI 022010
RWRID

IDAHO REGIONAL WEATHER ROUNDUP
NATIONAL WEATHER SERVICE BOISE ID
200 PM MDT TUE JUN 02 2015

NOTE: "FAIR" INDICATES FEW OR NO CLOUDS BELOW 12000 FEET
WITH NO SIGNIFICANT WEATHER AND/OR OBSTRUCTIONS TO VISIBILITY

IDZ012-014-022100-
SOUTHWEST IDAHO


CITY           SKY/WX    TMP DP  RH WIND       PRES   REMARKS
BOISE          MOSUNNY   72  41  32 W8        29.98F
CALDWELL       SUNNY     72  43  35 NW6       29.98F
MOUNTAIN HOME  PTSUNNY   72  42  33 NE9       29.97F
$$

IDZ016-017-022100-
SOUTHCENTRAL IDAHO


CITY           SKY/WX    TMP DP  RH WIND       PRES   REMARKS
BURLEY         MOSUNNY   69  42  37 NW8       30.00F
JEROME         SUNNY     70  42  36 W16G23    30.01F
TWIN FALLS     MOSUNNY   72  42  34 W9        29.99F
$$

IDZ019>023-022100-
SOUTHEAST IDAHO


CITY           SKY/WX    TMP DP  RH WIND       PRES   REMARKS
IDAHO FALLS    PTSUNNY   64  50  60 SW9       30.02F
POCATELLO      MOSUNNY   68  51  54 W15       30.02F
REXBURG        MOSUNNY   66  46  48 SW9       30.02F
$$

IDZ006-010-011-018-031-032-022100-
CENTRAL IDAHO MOUNTAINS


CITY           SKY/WX    TMP DP  RH WIND       PRES   REMARKS
MCCALL         LGT RAIN  53  44  71 E6        30.02F
HAILEY         MOSUNNY   64  43  45 SW7G21    30.05S
STANLEY          N/A     53  36  52 VRB6G17   30.07R
SALMON           N/A     70  43  37 S15G24    29.88F
CHALLIS        PTSUNNY   70  34  26 W13G18    29.94F
$$

IDZ002-004-006-007-026-022100-
NORTHERN IDAHO


CITY           SKY/WX    TMP DP  RH WIND       PRES   REMARKS
LEWISTON       MOSUNNY   69  50  50 VRB6      29.95S
LOWELL           N/A     64  53  67 CALM      29.98F
COEUR D`ALENE  CLOUDY    59  46  63 S16G22    29.95S
MULLAN PASS    LGT RAIN  41  41 100 VRB6      30.03R VSB 1/2
$$



USA.gov is the U.S. government's official web portal to all federal, state and local government web resources and services.